Back to catalog

CZ-6A DEB

AlivePO
NORAD 60788·DEBRIS·🇨🇳 China

Launched Aug 6, 2024 from Taiyuan Satellite Launch Center

Loading…

Next Passes (next 24 hours)

TLE

FreshSource: Space-Track

Epoch: Sep 13, 2026, 17:25 UTC

1 60788U 24140FP  26256.72636405  .00001124  00000-0  49234-3 0  9997
2 60788  88.9506 260.4030 0039373 265.1667  94.5028 14.22674776106135

Track CZ-6A DEB in real time with AllMySat

Download on the App Store